Regional Weather Roundup
Issued by NWS San Angelo, TX

Home | Current Version | Previous Version | Text Only | Print | Product List | Glossary On
Versions: 1 2 3 4 5 6 7 8 9 10 11 12 13 14 15 16 17 18 19 20 21 22 23 24 25 26 27 28 29 30 31 32 33 34 35 36 37 38 39 40 41 42 43 44 45 46 47 48 49 50
000
ASUS44 KSJT 232210
RWRSJT
WEST CENTRAL TEXAS REGIONAL WEATHER ROUNDUP
NATIONAL WEATHER SERVICE SAN ANGELO TX
400 PM CST THU NOV 23 2017

NOTE: "FAIR" INDICATES FEW OR NO CLOUDS BELOW 12,000 FEET WITH NO
SIGNIFICANT WEATHER AND/OR OBSTRUCTIONS TO VISIBILITY.

TXZ049-054-064>066-071>073-076>078-098-099-113-114-127-128-139-140-
154-155-168>170-232300
...LOCATIONS ACROSS WEST CENTRAL TEXAS...

CITY           SKY/WX    TMP DP  RH WIND       PRES   REMARKS
SAN ANGELO     CLOUDY    73  28  18 CALM      30.06F
ABILENE        SUNNY     73  31  21 W3        30.04F
DYESS AFB      SUNNY     73  35  25 N5        30.04S
JUNCTION       SUNNY     73  27  18 VRB3      30.06F
SWEETWATER     SUNNY     71  29  21 CALM      30.09S
BROWNWOOD      SUNNY     72  30  21 W7        30.05S
COLEMAN        CLEAR     72  31  22 SW6       30.06S
SONORA         CLOUDY    72  28  20 CALM      30.12S
OZONA          FAIR      72  27  18 S3        30.10F
BRADY          NOT AVBL
$$

TEXAS PANHANDLE/OKLAHOMA PANHANDLE

CITY           SKY/WX    TMP DP  RH WIND       PRES   REMARKS
AMARILLO       CLOUDY    72  36  26 W7        30.08F
BORGER         SUNNY     75  39  27 W5        30.05F
CANADIAN       SUNNY     76  38  25 CALM      30.00F
DALHART        CLOUDY    73  37  27 SW8       30.08F
DUMAS          CLOUDY    70  39  31 SW8       30.07S
GUYMON         NOT AVBL
HEREFORD       CLEAR     74  36  24 MISG      30.09F
PAMPA          CLEAR     75  38  26 W3        30.06S
PERRYTON       SUNNY     75  40  28 NW3       30.01F
$$

SOUTHERN PANHANDLE/SOUTH PLAINS/ROLLING PLAINS

CITY           SKY/WX    TMP DP  RH WIND       PRES   REMARKS
LUBBOCK        CLOUDY    74  29  19 W8        30.07F
SNYDER         SUNNY     73  33  23 CALM      30.07F
CHILDRESS      SUNNY     78  32  18 CALM      30.01F
SEMINOLE       CLEAR     75  32  21 NE3       30.11F
$$

PERMIAN BASIN

CITY           SKY/WX    TMP DP  RH WIND       PRES   REMARKS
MIDLAND        SUNNY     74  29  19 CALM      30.09F
ODESSA         SUNNY     74  29  19 NE5       30.10F
WINK           SUNNY     74  29  19 SW3       30.08F
$$

FAR WEST/SOUTHWEST MOUNTAINS/TRANS PECOS

CITY           SKY/WX    TMP DP  RH WIND       PRES   REMARKS
ALPINE         CLEAR     70  28  20 NE8       30.21S
DRYDEN           N/A     76  30  18 NE7       30.06F
EL PASO        MOSUNNY   73  27  18 SW3       30.16F
FORT STOCKTON  SUNNY     70  29  21 N8        30.12F
GUADALUPE PASS SUNNY     70  27  20 SW12      30.22F
MARFA          SUNNY     70  29  21 NE15      30.18F
PECOS          CLEAR     71  30  21 N3        30.10F
$$

DALLAS/FORT WORTH METROPLEX

CITY           SKY/WX    TMP DP  RH WIND       PRES   REMARKS
DFW AIRPORT    MOSUNNY   69  29  22 SE5       30.04S
FTW MEACHAM    SUNNY     71  31  22 SE5       30.04S
DAL-EXECUTIVE  SUNNY     68  29  23 SE7       30.05S
GRAND PRAIRIE  SUNNY     68  28  22 SE7       30.07S
ADDISON        SUNNY     66  27  22 S6        30.06F
MESQUITE       CLEAR     66  27  22 SE6       30.07S
LANCASTER      CLEAR     66  28  23 S5        30.07S
$$

NORTH CENTRAL TEXAS

CITY           SKY/WX    TMP DP  RH WIND       PRES   REMARKS
SHRMAN/DENISON CLEAR     66  29  24 S8        30.05F
GAINESVILLE    SUNNY     67  30  24 SE9       30.05F
BRIDGEPORT     CLEAR     72  32  23 W5        30.05S
DENTON         SUNNY     68  30  24 S7        30.04S
WAXAHACHIE     CLEAR     67  32  26 CALM      30.07S
GRANBURY       CLEAR     73  31  21 S5        30.05S
$$

WESTERN NORTH TEXAS

CITY           SKY/WX    TMP DP  RH WIND       PRES   REMARKS
WICHITA FALLS  SUNNY     70  33  25 VRB5      30.01F
VERNON         CLEAR     76  21  13 S3        30.02S
BRECKENRIDGE   CLEAR     76  30  18 W5        30.03S HAZE
COMANCHE       SUNNY     71  33  24 W6        30.05F
$$

CENTRAL AND SOUTH CENTRAL TEXAS

CITY           SKY/WX    TMP DP  RH WIND       PRES   REMARKS
AUSTIN/BERGSTM MOSUNNY   69  30  23 S6        30.07F
WACO           SUNNY     68  27  21 SE7       30.06F
HILLSBORO      CLEAR     68  30  24 CALM      30.06S
TEMPLE         SUNNY     69  28  21 SW3       30.07F
KILLEEN-GRAY   SUNNY     70  27  20 CALM      30.04F
FORT HOOD      SUNNY     69  28  21 CALM      30.02F
GEORGETOWN     SUNNY     70  31  23 SW5       30.08S
LAGO VISTA     FAIR      69  28  21 CALM      30.07F
SAN MARCOS     SUNNY     70  30  22 S6        30.07F
NEW BRAUNFELS  SUNNY     71  27  19 S9        30.06F
RANDOLPH AFB   SUNNY     70  26  19 S5        30.07F
SAN ANTONIO    MOSUNNY   71  26  18 SW6       30.07F
STINSON        SUNNY     72  26  18 W5        30.06F
PLEASANTON     NOT AVBL
LA GRANGE      SUNNY     68  32  26 CALM      30.06F
GIDDINGS       CLEAR     66  31  26 E3        30.09S
$$

EAST TEXAS

CITY           SKY/WX    TMP DP  RH WIND       PRES   REMARKS
PARIS          SUNNY     63  29  27 S6        30.07S
CLARKSVILLE    NOT AVBL
TYLER          SUNNY     63  26  24 S6        30.07F
LONGVIEW       SUNNY     63  32  31 CALM      30.07F
PALESTINE      CLEAR     64  28  25 CALM      30.08F
NACOGDOCHES    SUNNY     62  32  32 CALM      30.08F
$$

TEXAS HILL COUNTRY AND EDWARDS PLATEAU

CITY           SKY/WX    TMP DP  RH WIND       PRES   REMARKS
LLANO          CLEAR     73  28  19 CALM      30.08F
HORSESHOE BAY  FAIR      71  28  20 CALM      30.06F
KERRVILLE      SUNNY     72  30  21 E3        30.06F
FREDERICKSBRG  SUNNY     71  26  18 W5        30.06F
ROCKSPRINGS    NOT AVBL
HONDO          SUNNY     74  30  19 W8        30.07F
UVALDE         CLEAR     69  33  25 SW3       30.08F
DEL RIO        SUNNY     72  36  26 VRB5      30.05F
$$

SOUTHEAST TEXAS

CITY           SKY/WX    TMP DP  RH WIND       PRES   REMARKS
COLLEGE STN    SUNNY     67  29  24 N3        30.08F
CALDWELL       CLEAR     65  30  26 CALM      30.08F
CROCKETT         N/A     64  32  29 CALM      30.11F
BRENHAM        SUNNY     66  28  24 CALM      30.10S
HUNTSVILLE     SUNNY     64  33  31 CALM      30.08F
CONROE         SUNNY     65  29  25 NW3       30.08F
HOUSTON BUSH   MOSUNNY   66  34  30 CALM      30.08F
HOUSTON HOBBY  MOSUNNY   64  33  31 N6        30.08S
PERLAND        SUNNY     67  33  28 N9        30.09F
WHARTON        CLEAR     65  30  26 CALM      30.09F
$$

THE UPPER TEXAS COAST

CITY           SKY/WX    TMP DP  RH WIND       PRES   REMARKS
ORANGE         CLEAR     62  35  36 N7        30.09S
PORT ARTHUR    SUNNY     62  36  37 NW9       30.07S
GALVESTON      SUNNY     62  39  42 N10       30.09F
ANGLETON       SUNNY     67  32  27 N5        30.08F
BAY CITY       CLEAR     67  35  31 NW5       30.08S
$$

TEXAS COASTAL BEND, RIO GRANDE PLAINS DEEP SOUTH TEXAS

CITY           SKY/WX    TMP DP  RH WIND       PRES   REMARKS
VICTORIA       SUNNY     71  28  20 NE6       30.08F
BEEVILLE       FAIR      71  25  17 CALM      30.08S
ROCKPORT       SUNNY     65  38  36 SE7       30.08F
PORT ARANSAS   NOT AVBL
PORT LAVACA    CLEAR     67  35  30 E6        30.08F
CORPUS CHRISTI MOSUNNY   71  28  20 N5        30.08F
KINGSVILLE NAS SUNNY     73  27  18 N6        30.07F
COTULLA        SUNNY     72  29  20 W5        30.07F
LAREDO         SUNNY     73  35  25 CALM      30.08F
BROWNSVILLE    SUNNY     71  40  32 NE9       30.09F
PORT ISABEL    SUNNY     68  41  37 NE9       30.09S
HEBBRONVILLE   CLEAR     74  30  20 E3        30.08S
MCALLEN        SUNNY     75  40  28 NE3       30.08F
WESLACO        SUNNY     72  33  24 N3        30.07F
FALFURRIAS     CLEAR     73  24  16 NW3       30.07F
EDINBURG       CLEAR     75  31  20 CALM      30.08F
$$



USA.gov is the U.S. government's official web portal to all federal, state and local government web resources and services.